Simultaneous Nadir Overpasses (SNOs) Predictions

Prediction of SNOs between FY3D and AQUA Satellite Orbit:

Table of predicted SNOs for the next 14.0 days since TLE Epoch: 3/14/2020
Index Date (FY3D) Time (FY3D) Lat,Lon (FY3D) SZA (FY3D ) Date (AQUA) Time (AQUA) Lat,Lon (AQUA) SZA (AQUA ) Distance(km) Time Diff (sec)
1 03/16/2020 15:27:37 68.06, 172.81 107.38 03/16/2020 15:28:15 68.06, 172.77 107.36 2.18 38
2 03/16/2020 16:17:36 -70.59, -16.27 75.26 03/16/2020 16:16:57 -70.60, -16.23 75.23 1.74 39
3 03/19/2020 07:44:11 67.49, -71.99 106.89 03/19/2020 07:44:54 67.49, -72.01 106.86 1.05 43
4 03/19/2020 08:33:51 -71.03, 100.36 76.80 03/19/2020 08:33:18 -71.03, 100.30 76.74 2.18 33
5 03/22/2020 00:00:44 67.03, 43.37 106.30 03/22/2020 00:01:32 67.03, 43.36 106.25 0.36 48
6 03/22/2020 00:50:23 -70.64,-144.39 77.45 03/22/2020 00:49:55 -70.63,-144.43 77.41 1.31 28
7 03/24/2020 16:17:16 66.61, 158.80 105.65 03/24/2020 16:18:09 66.61, 158.80 105.59 0.15 53
8 03/24/2020 17:06:53 -70.34, -28.96 78.22 03/24/2020 17:06:30 -70.34, -28.98 78.18 0.84 23
9 03/27/2020 08:33:46 66.30, -85.63 104.89 03/27/2020 08:34:44 66.30, -85.64 104.83 0.32 58
10 03/27/2020 09:23:22 -70.10, 86.56 79.03 03/27/2020 09:23:04 -70.09, 86.54 79.00 0.77 18




NCC Satellite Simultaneous Nadir Overpasses (SNOs) Prediction Service
